TimeCDT,TemperatureF,Dew PointF,Humidity,Sea Level PressureIn,VisibilityMPH,Wind Direction,Wind SpeedMPH,Gust SpeedMPH,PrecipitationIn,Events,Conditions,WindDirDegrees,DateUTC
12:52 AM,52.0,48.0,86,29.89,10.0,SW,6.9,-,N/A,,Clear,220,2013-06-15 05:52:00
1:52 AM,50.0,48.0,93,29.89,10.0,SW,6.9,-,N/A,,Clear,220,2013-06-15 06:52:00
2:52 AM,52.0,48.9,89,29.89,10.0,SW,8.1,-,N/A,,Clear,220,2013-06-15 07:52:00
3:52 AM,51.1,48.0,89,29.91,10.0,SW,8.1,-,N/A,,Clear,230,2013-06-15 08:52:00
4:52 AM,50.0,46.9,89,29.89,10.0,SSW,5.8,-,N/A,,Clear,210,2013-06-15 09:52:00
5:52 AM,48.9,46.0,90,29.90,10.0,South,3.5,-,N/A,,Clear,190,2013-06-15 10:52:00
6:52 AM,50.0,46.9,89,29.91,10.0,SSW,5.8,-,N/A,,Clear,210,2013-06-15 11:52:00
7:52 AM,55.9,46.9,72,29.91,10.0,WSW,9.2,-,N/A,,Clear,240,2013-06-15 12:52:00
8:52 AM,59.0,46.9,64,29.90,10.0,WSW,19.6,25.3,N/A,,Clear,250,2013-06-15 13:52:00
9:52 AM,61.0,46.9,60,29.90,10.0,WSW,17.3,29.9,N/A,,Clear,250,2013-06-15 14:52:00
10:52 AM,64.0,48.0,56,29.90,10.0,West,19.6,29.9,N/A,,Clear,270,2013-06-15 15:52:00
11:52 AM,64.9,48.0,54,29.89,10.0,West,23.0,31.1,N/A,,Clear,260,2013-06-15 16:52:00
12:52 PM,-9999,-9999,N/A,29.87,10.0,West,26.5,35.7,N/A,,Clear,260,2013-06-15 17:52:00
1:52 PM,69.1,-9999,N/A,29.87,10.0,WSW,20.7,32.2,N/A,,Scattered Clouds,250,2013-06-15 18:52:00
2:52 PM,69.1,-9999,N/A,29.87,10.0,West,24.2,31.1,N/A,,Partly Cloudy,280,2013-06-15 19:52:00
3:52 PM,72.0,-9999,N/A,29.86,10.0,West,24.2,33.4,N/A,,Partly Cloudy,260,2013-06-15 20:52:00
4:52 PM,72.0,-9999,N/A,29.86,10.0,West,20.7,31.1,N/A,,Scattered Clouds,260,2013-06-15 21:52:00
5:52 PM,72.0,-9999,N/A,29.85,10.0,West,24.2,33.4,N/A,,Partly Cloudy,270,2013-06-15 22:52:00
6:52 PM,72.0,-9999,N/A,29.85,10.0,WSW,21.9,33.4,N/A,,Scattered Clouds,250,2013-06-15 23:52:00
7:52 PM,69.1,-9999,N/A,29.85,10.0,West,15.0,23.0,N/A,,Mostly Cloudy,260,2013-06-16 00:52:00
8:52 PM,68.0,-9999,N/A,29.86,10.0,WNW,6.9,-,N/A,,Mostly Cloudy,290,2013-06-16 01:52:00
9:52 PM,62.1,-9999,N/A,29.86,10.0,WSW,5.8,-,N/A,,Scattered Clouds,250,2013-06-16 02:52:00
10:52 PM,59.0,-9999,N/A,29.88,10.0,WNW,6.9,-,N/A,,Partly Cloudy,290,2013-06-16 03:52:00
11:52 PM,54.0,-9999,N/A,29.89,10.0,SW,5.8,-,N/A,,Clear,230,2013-06-16 04:52:00